User: anonymous   Login
Location: Oshawa
(43.9000°N, 78.8670°W)
Time: 09:10:38
(UTC-04:00)
Language:

SPOT 5 - Orbit

View from above orbital plane
View from above orbital plane
View from above satellite
View from above satellite

Ground track
Ground track

The orbit data is extracted from the following two-line orbital elements,

1 27421U 02021A   15091.17096354  .00000097  00000-0  65273-4 0  9995
2 27421 098.5212 149.5484 0001385 106.3639 346.3457 14.20124319669195
Epoch (UTC): 01 April 2015 04:06:11
Eccentricity: 0.0001385
inclination: 98.5212°
perigee height: 824 km
apogee height: 826 km
right ascension of ascending node: 149.5484°
argument of perigee: 106.3639°
revolutions per day: 14.20124319
mean anomaly at epoch: 346.3457°
orbit number at epoch: 66919

The dashed part of the orbit path shows where the satellite is in the earth's shadow,  

DLR